Location: Unspecified
(0.0000°N, 0.0000°E)
Time: 16:40:21
(UTC+00:00)

Tiangong 2 - Pass Details

Date: 11 December 2018
Orbit: 382 x 391 km, 42.8° (Epoch: 12 December)

Event Time Altitude Azimuth Distance (km) Brightness Sun altitude
Rises 19:43:07 0° 253° (WSW) 2,248 6.3 -25.1°
Reaches altitude 10° 19:45:48 10° 278° (W) 1,391 4.6 -25.7°
Enters shadow 19:46:46 14° 295° (WNW) 1,198 4.0 -25.9°
